Total_Precipitation_Accumulation
0.01 0.02 0.02 0.01 0.02 0.04 0.06 0.12 0.22 0.21 0.20 0.27 0.40 0.60 0.79 0.89 1.12 1.44 1.64 1.63 1.61 1.93 2.39 2.76 3.06 3.17 3.50 3.70 3.87 3.89 4.14 4.58 4.93 4.77 4.45 4.29 4.06 3.83 3.60 3.32 3.23 3.30 3.29 3.47
0.01 0.02 0.01 0.02 0.02 0.03 0.04 0.10 0.19 0.21 0.21 0.33 0.50 0.73 0.89 1.10 1.36 1.49 1.41 1.39 1.54 1.93 2.44 2.82 3.08 3.21 3.47 3.74 4.16 4.29 4.50 4.90 5.05 4.90 4.78 4.64 4.51 4.10 3.98 3.83 3.68 3.31 3.13 3.25
0.01 0.02 0.01 0.02 0.02 0.03 0.06 0.11 0.18 0.19 0.27 0.44 0.58 1.03 1.19 1.33 1.50 1.51 1.43 1.60 1.62 1.71 2.14 2.42 2.53 2.70 2.87 3.02 3.28 3.57 4.08 4.61 4.83 4.90 4.80 4.75 4.78 4.32 4.08 3.95 3.79 3.42 3.13 3.03
0.01 0.02 0.01 0.02 0.03 0.03 0.08 0.10 0.11 0.15 0.27 0.55 0.67 1.32 1.50 1.68 1.82 1.70 1.60 1.53 1.52 1.76 2.08 2.08 1.90 2.05 2.31 2.30 2.61 3.03 3.50 3.88 4.13 4.22 4.23 4.28 4.25 4.17 4.08 3.94 3.58 3.36 3.13 3.01
0.02 0.02 0.03 0.05 0.03 0.03 0.07 0.10 0.12 0.17 0.30 0.55 0.61 1.00 1.52 1.88 2.07 1.69 1.58 1.44 1.51 1.74 1.77 1.72 1.72 1.83 1.98 2.14 2.46 2.77 3.11 3.41 3.59 3.69 3.78 3.90 3.79 3.83 3.72 3.55 3.36 3.17 3.01 2.87
0.03 0.04 0.04 0.04 0.04 0.06 0.07 0.13 0.21 0.29 0.50 0.91 0.77 0.89 1.43 1.80 1.65 1.45 1.39 1.18 1.30 1.48 1.56 1.60 1.69 1.80 1.92 2.22 2.58 2.87 3.12 3.35 3.42 3.21 3.11 3.16 3.22 3.28 3.23 3.09 2.92 2.72 2.68 2.60
0.13 0.11 0.08 0.07 0.08 0.09 0.11 0.24 0.71 1.13 1.46 1.35 0.84 0.95 1.55 1.43 1.10 1.02 1.11 1.11 1.11 1.14 1.28 1.38 1.56 1.76 1.93 2.05 2.15 2.59 3.02 3.20 3.10 2.85 2.67 2.60 2.75 2.87 2.81 2.70 2.63 2.54 2.43 2.38
0.28 0.26 0.15 0.11 0.14 0.15 0.16 0.27 0.78 1.09 1.19 1.16 0.95 1.35 1.84 1.43 0.99 0.84 0.94 0.94 0.83 0.79 0.76 0.84 1.01 1.13 1.28 1.33 1.35 1.53 1.81 2.05 2.13 2.03 2.05 2.12 2.17 2.25 2.26 2.46 2.31 2.30 2.24 2.15
0.17 0.17 0.13 0.14 0.19 0.20 0.26 0.31 0.33 0.56 0.78 1.18 1.20 1.42 1.52 1.25 0.97 0.93 1.00 0.92 0.74 0.69 0.66 0.73 0.83 0.89 0.97 1.00 1.05 1.19 1.43 1.67 1.72 1.73 1.79 1.83 1.85 1.91 1.94 2.01 1.97 1.94 2.01 1.98
0.11 0.12 0.13 0.13 0.17 0.21 0.22 0.30 0.46 0.74 0.99 1.15 1.26 1.63 1.80 1.60 1.33 1.14 1.08 0.96 0.75 0.63 0.62 0.70 0.80 0.84 0.93 1.04 1.20 1.32 1.43 1.53 1.53 1.53 1.54 1.50 1.60 1.63 1.69 1.69 1.64 1.66 1.74 1.77
0.09 0.10 0.15 0.21 0.24 0.25 0.26 0.34 0.50 0.68 0.75 0.97 1.38 1.55 1.31 1.26 1.24 1.30 1.25 1.04 0.81 0.64 0.59 0.66 0.79 0.83 0.89 1.01 1.15 1.30 1.40 1.50 1.47 1.42 1.49 1.54 1.56 1.61 1.59 1.57 1.50 1.57 1.65 1.70
0.10 0.12 0.18 0.27 0.24 0.18 0.25 0.35 0.51 0.77 0.82 0.85 1.03 1.23 0.86 0.86 0.96 1.05 1.06 0.85 0.67 0.61 0.61 0.68 0.79 0.84 0.97 1.04 1.11 1.14 1.26 1.39 1.40 1.41 1.53 1.73 1.71 1.72 1.68 1.55 1.49 1.55 1.56 1.60
0.16 0.16 0.30 0.58 0.53 0.29 0.28 0.28 0.38 0.53 0.65 0.75 0.99 1.19 0.81 0.82 0.96 0.96 0.93 0.83 0.75 0.72 0.71 0.77 0.82 0.81 0.93 1.04 1.09 1.10 1.19 1.32 1.49 1.52 1.57 1.72 1.74 1.70 1.60 1.53 1.50 1.51 1.51 1.54
0.14 0.16 0.27 0.66 0.69 0.46 0.34 0.30 0.33 0.46 0.60 0.57 0.61 0.86 0.86 0.85 0.97 0.98 0.98 0.95 0.93 0.81 0.80 0.92 0.99 0.91 0.91 0.95 0.99 1.03 1.15 1.29 1.33 1.33 1.38 1.48 1.44 1.43 1.45 1.47 1.46 1.44 1.49 1.53
0.14 0.18 0.19 0.29 0.40 0.43 0.40 0.33 0.30 0.32 0.36 0.49 0.57 0.77 0.95 0.96 0.98 0.88 0.84 0.87 0.88 0.84 0.80 0.87 0.80 0.75 0.75 0.77 0.80 0.88 0.92 1.04 1.19 1.27 1.32 1.41 1.45 1.44 1.46 1.41 1.35 1.42 1.49 1.46
0.21 0.26 0.25 0.32 0.40 0.45 0.43 0.38 0.32 0.30 0.28 0.36 0.49 0.70 0.76 0.83 0.87 0.90 0.88 0.89 0.84 0.76 0.77 0.71 0.59 0.54 0.59 0.67 0.70 0.77 0.80 0.88 1.01 1.06 1.16 1.37 1.50 1.52 1.49 1.39 1.39 1.45 1.51 1.58
0.33 0.38 0.36 0.40 0.49 0.62 0.63 0.39 0.36 0.37 0.34 0.46 0.73 0.84 0.84 0.97 0.97 0.90 0.85 0.82 0.74 0.68 0.67 0.63 0.54 0.53 0.59 0.67 0.74 0.80 0.86 0.89 0.96 1.02 1.11 1.19 1.31 1.39 1.33 1.27 1.32 1.36 1.44 1.58
0.39 0.56 0.57 0.54 0.72 0.92 0.73 0.43 0.37 0.42 0.41 0.43 0.58 0.68 0.75 0.97 1.02 0.82 0.70 0.70 0.68 0.65 0.59 0.60 0.60 0.62 0.74 0.75 0.82 0.97 1.08 1.08 1.09 1.19 1.26 1.25 1.32 1.44 1.45 1.42 1.44 1.54 1.60 1.63
0.34 0.54 0.62 0.68 0.85 0.87 0.73 0.59 0.52 0.58 0.66 0.50 0.54 0.61 0.67 0.70 0.82 0.89 0.69 0.71 0.72 0.63 0.64 0.64 0.67 0.75 0.89 0.88 0.92 1.09 1.16 1.22 1.26 1.30 1.39 1.45 1.50 1.61 1.66 1.65 1.72 1.81 1.87 1.77
0.43 0.56 0.72 0.71 0.90 1.05 0.87 0.69 0.61 0.71 1.17 0.78 0.60 0.54 0.64 0.70 1.04 1.12 0.83 0.72 0.72 0.70 0.76 0.82 0.81 0.87 0.96 1.04 1.19 1.31 1.36 1.46 1.53 1.50 1.51 1.60 1.74 1.83 1.89 2.07 2.30 2.38 2.37 2.24
0.86 0.90 0.90 0.88 0.96 0.97 0.83 0.68 0.69 1.20 1.45 0.91 0.73 0.62 0.67 0.75 0.90 0.96 0.81 0.73 0.76 0.83 0.95 1.07 1.18 1.23 1.26 1.20 1.30 1.48 1.67 1.75 1.76 1.90 1.94 1.96 2.05 2.18 2.26 2.50 2.67 2.70 2.69 2.77
1.14 1.17 1.13 1.14 1.34 1.36 0.97 0.94 1.16 1.38 1.20 1.01 0.95 0.88 0.76 0.74 0.78 0.89 0.90 0.87 0.86 0.90 1.06 1.17 1.29 1.37 1.40 1.50 1.60 1.66 1.75 1.86 1.96 2.02 2.12 2.21 2.37 2.30 2.37 2.66 2.72 2.84 2.98 2.99
1.16 1.21 1.25 1.33 1.43 1.29 1.14 1.27 1.33 1.22 1.27 1.20 1.05 1.04 0.92 0.86 0.82 0.80 0.85 0.90 0.95 0.94 1.00 1.17 1.22 1.30 1.44 1.56 1.68 1.89 1.99 2.00 2.08 2.17 2.25 2.43 2.61 2.74 2.82 2.99 3.08 3.05 3.03 3.00
1.30 1.14 1.31 1.50 1.58 1.47 1.51 1.48 1.40 1.36 1.34 1.21 1.04 1.07 1.04 0.95 0.86 0.85 0.93 0.95 0.94 0.94 0.97 1.08 1.15 1.29 1.42 1.54 1.74 1.98 2.03 2.00 2.13 2.28 2.34 2.48 2.63 2.74 2.83 3.01 3.07 3.05 3.00 2.99
1.52 1.45 1.71 1.93 1.93 1.93 1.94 1.77 1.53 1.38 1.25 1.17 1.11 1.13 1.10 1.06 1.01 0.95 0.98 1.05 0.95 0.88 0.95 1.08 1.12 1.22 1.35 1.38 1.58 1.82 2.00 2.10 2.27 2.41 2.51 2.62 2.77 2.91 3.01 2.92 2.98 3.06 3.03 2.94
1.62 1.76 1.99 2.19 2.01 1.98 2.04 1.81 1.52 1.46 1.49 1.42 1.41 1.38 1.31 1.24 1.21 1.10 1.01 1.02 0.97 0.93 1.00 1.16 1.20 1.24 1.30 1.35 1.50 1.68 1.92 2.14 2.45 2.52 2.57 2.64 2.71 2.85 2.87 2.86 2.82 2.79 2.67 2.63